Location: St. Louis
(38.6270°N, 90.1994°W)
Time: 18:18:58
(UTC-06:00)

deb Explorer IX - Visible Passes

Search period start: 29 November 2021 00:00
Search period end: 09 December 2021 00:00
Orbit: 546 x 1086 km, 38.8° (Epoch: 29 November)

Date Brightness Start Highest point End Pass type
(mag) Time Alt. Az. Time Alt. Az. Time Alt. Az.
29 Nov ? 18:20:01 10° WSW 18:21:47 12° SW 18:23:38 10° SSW visible
30 Nov ? 17:55:21 10° SW 17:56:54 12° SW 17:58:28 10° SSW visible
01 Dec ? 17:30:43 10° SW 17:32:00 11° SW 17:33:19 10° SSW visible
02 Dec ? 17:06:04 10° SW 17:07:07 11° SW 17:08:10 10° SSW visible
